Location: Rounton
(54.4000°N, 1.3500°W)
Time: 13:57:57
(UTC+00:00)

Transit 4A - Pass Details

Date: 05 December 2021
Orbit: 864 x 981 km, 66.8° (Epoch: 20 January)

Event Time Altitude Azimuth Distance (km) Brightness Sun altitude
Rises 23:51:55 0° 298° (WNW) 3,546 - -58.1°
Reaches altitude 10° 23:54:50 10° 311° (NW) 2,624 - -58.1°
Maximum altitude 23:59:56 27° 8° (N) 1,743 - -58.1°
Drops below altitude 10° 00:05:09 10° 64° (ENE) 2,690 - -58.0°
Sets 00:08:11 0° 77° (ENE) 3,652 - -58.0°
